Agen Judi Poker Online Terpercaya Uang Asli Rupiah

Jackpot

Texas Poker Multi Jackpot System

Kini Telah hadir Jackpot SUPER ROYAL FLUSH

Kini Telah hadir Jackpot 2000 (khusus table VIP keatas).

Ikutilah global jackpot yang tersedia di system kami, dengan system jackpot terbaru dan pertama di indonesia, anda dapat membeli jackpot dengan harga 100 rupiah saja dan menangkan hadiahnya hingga puluhan juta rupiah.

Jackpot bukanlah suatu keharusan untuk dibeli, namun kami memberikan suatu fitur tambahan untuk member tercinta dari www.jakartapoker.com.

Terdapat tiga pilihan harga jackpot yang bisa anda beli yaitu :100,500,1000 dan 2000(khusus table VIP Keatas) rupiah.

Hadiah dari Multi jackpot system www.jakartapoker.com

  1. full house x 10 harga jackpot yang anda beli.
      (contoh:anda membeli 1000 maka:1000 X10 = 10.000)
  2. four of kind x 250 harga jackpot yang anda beli
      (contoh:anda membeli 1000 maka:1000 X250 = 250.000)
  3. Straight flush x 1200
      (contoh:anda membeli 1000 maka:1000 X1200 = 1.200.000)
  4. Royal flush x 10000 harga jackpot yang anda beli
      (contoh:anda membeli 1000 maka:1000 X10000 = 10.000.000)
  5. SUPER ROYAL FLUSH x 30000 harga jackpot yang anda beli
      (contoh:anda membeli 1000 maka:1000 X30000 = 30.000.000)

Kondisi kartu

  1. full house adalah kondisi kartu dimana kartu anda dan kartu tengah dengan total 7 kartu bisa mendapatkan nilai 5 kartu dengan kombinasi 1 tris(three of kind) dan 1 pair, contoh 3 kartu 10 dan 2 kartu 5
  2. Four of kind adalah kondisi kartu dimana kartu anda dan kartu tengah dengan total 7 kartu bisa mendapatkan nilai 5 kartu dengan kombinasi 4 kartu yang sama jumlah dan 1 kartu apapun juga contoh anda mendapatkan 4 buah kartu angka 3 dan 1 kartu apapun.
  3. Staright flush adalah kondisi kartu dimana kartu anda dan kartu tengah dengan total 7 kartu bisa mendapatkan nilai 5 kartu dengan kombinasi seri / staright dengan kembang yang sama contoh : urutan kartu dari angka 5, 6, 7, 8 , 9 10 dengan kembang yg sama misalnya as hati
  4. Royal flush adalah kondisi kartu dimana kartu anda dan kartu tengah dengan total 7 kartu bisa mendapatkan nilai 5 kartu dengan kombinasi seri / staright dengan kembang yang sama tetapi kartu tersebut haruslah dimulai dari 10. contoh 10, Queen, Jack, King dan aces dengan kembang yang sama
  5. Super Royal flush adalah kondisi kartu dimana Kedua kartu anda digabung dengan 3 kartu pertama meja haruslah royal flush. contoh kartu anda 10,Queen kembang sama dan 3 kartu pertama meja adalah Jack, King dan aces dengan kembang yang sama

Demikian adalah penjelasan dari Multi Jackpot www.jakartapoker.com terima kasih dan selamat bermain salam hoki dari kami

Texas Poker Jackpot Winner

TOP SUPER ROYAL FLUSH
No.TanggalNamaPriceWin
127/04 19:14BOTINZBEESuper Royal flush30,000,000
227/04 17:49CLUBRISKASuper Royal flush15,000,000
327/04 17:22ASET999Super Royal flush3,000,000
427/04 17:16RINDOS29Super Royal flush15,000,000
527/04 15:23PAUH001Super Royal flush30,000,000
TOP ROYAL FLUSH
No.TanggalNamaPriceWin
127/04 21:05SIHIR9Royal flush10,000,000
227/04 21:00IN0D4D3Royal flush1,000,000
327/04 21:00SUCIGAULRoyal flush10,000,000
427/04 20:59ZAHRATURoyal flush1,000,000
527/04 20:15FLUSH8Royal flush10,000,000
TOP STRAIGHT FLUSH
No.TanggalNamaPriceWin
127/04 21:05CHOMPLONKStraight Flush600,000
227/04 21:03LIANGTAIEStraight Flush600,000
327/04 21:03ZERO_001Straight Flush1,200,000
427/04 21:01GL4DIAT0RRStraight Flush120,000
527/04 21:00BLITAR90Straight Flush600,000
LATEST JACKPOT
No.TanggalNamaPriceWin
127/04 21:05KJNFull House10,000
227/04 21:05AUZ12Full House5,000
327/04 21:05SBO13140Full House1,000
427/04 21:05WBA555Full House5,000
527/04 21:05WORLD22Full House1,000
627/04 21:05BITCH168Full House1,000
727/04 21:05PAIJO981Full House5,000
827/04 21:05ROSIQQFull House10,000
927/04 21:05FMED6405UOFull House5,000
1027/04 21:05BG66HOFull House10,000
1127/04 21:05CERDAS70Full House20,000
1227/04 21:05SIHIR9Royal flush10,000,000
1327/04 21:05DWBT6621Full House10,000
1427/04 21:05PULQI5Full House5,000
1527/04 21:05TEMPIRAIFull House5,000
1627/04 21:05UHOBXKULJKFull House5,000
1727/04 21:05IZ636036Full House1,000
1827/04 21:05KAPAWFull House1,000
1927/04 21:05CL60GUFJ7OFour Of A Kind25,000
2027/04 21:05AZKA006Full House10,000
2127/04 21:05DARIDA47Full House5,000
2227/04 21:05MUJUR1111Full House5,000
2327/04 21:05ELOK230696Full House10,000
2427/04 21:05BAEBE330Four Of A Kind25,000
2527/04 21:05LIANGTAIEFull House5,000
2627/04 21:05ABANGBOB_Full House1,000
2727/04 21:05TONGKEX88Full House10,000
2827/04 21:05MACKIEFull House10,000
2927/04 21:05SURYA7979Full House1,000
3027/04 21:05UTJ2012Full House1,000
3127/04 21:05AMANDO79Full House5,000
3227/04 21:05PURI19Full House20,000
3327/04 21:05JACKPOT20MFull House1,000
3427/04 21:05CLBRINJANIFull House1,000
3527/04 21:05CHOMPLONKStraight Flush600,000
3627/04 21:05TRIFENA12Full House5,000
3727/04 21:05BRIA1993Full House5,000
3827/04 21:04KUZNAFull House10,000
3927/04 21:04YENTI55Full House10,000
4027/04 21:04GALII99Full House5,000
4127/04 21:04VOLTUS212Full House10,000
4227/04 21:04DIAN_757Full House1,000
4327/04 21:04CHARD27Full House10,000
4427/04 21:04LEKOIFull House5,000
4527/04 21:04TABAHPURBAFull House1,000
4627/04 21:04S3L3NDR0Full House1,000
4727/04 21:04TETO1512Full House1,000
4827/04 21:04ROSIQQFull House10,000
4927/04 21:04LEDIS_POKFull House1,000
5027/04 21:04RIZKYANFull House5,000

Domino Multi Jackpot System

Ikutilah global jackpot yang tersedia di system kami, dengan system jackpot terbaru dan pertama di indonesia, anda dapat membeli jackpot dengan harga 100 rupiah saja dan menangkan hadiahnya hingga puluhan juta rupiah.

Jackpot bukanlah suatu keharusan untuk dibeli, namun kami memberikan suatu fitur tambahan untuk member tercinta dari www.jakartapoker.com.

Terdapat tiga pilihan harga jackpot yang bisa anda beli yaitu :100,500 dan 1000 rupiah.

Hadiah dari Multi jackpot system www.jakartapoker.com

  1. Murni Kecil x 50 harga jackpot yang anda beli.
      (contoh:anda membeli 1000 maka:1000 X 50 = 50.000)
  2. Murni Besar x 50 harga jackpot yang anda beli
      (contoh:anda membeli 1000 maka:1000 X 50 = 50.000)
  3. BALAK x 100 harga jackpot yang anda beli
      (contoh:anda membeli 1000 maka:1000 X 100 = 100.000)
  4. ENAM DEWA x 6666 harga jackpot yang anda beli
      (contoh:anda membeli 1000 maka:1000 X 6666 = 6.666.000)

Demikian adalah penjelasan dari Multi Jackpot www.jakartapoker.com terima kasih dan selamat bermain salam hoki dari kami

Domino Jackpot Winner

TOP ENAM DEWA
No.TanggalNamaPriceWin
127/04 20:13KALUK77murni enam3,333,000
227/04 19:31RESTU288murni enam6,666,000
327/04 18:41SOEGIH128murni enam3,333,000
427/04 17:14NY1MUG99murni enam666,600
527/04 16:54GEULEUPAmurni enam6,666,000
TOP BALAK
No.TanggalNamaPriceWin
127/04 20:59JET_PISTOLbalak100,000
227/04 20:57BOHDONO77balak50,000
327/04 20:45KAYLANIbalak100,000
427/04 20:43POKERKU23balak10,000
527/04 20:42MB97balak50,000
LATEST JACKPOT
No.TanggalNamaPriceWin
127/04 21:05RIZKIBRKHmurni kecil5,000
227/04 21:04KESATRIA99murni besar5,000
327/04 21:04QZ88murni besar50,000
427/04 21:04DEWAMABOXmurni besar25,000
527/04 21:03CRUISER44murni besar25,000
627/04 21:03COMANDO13murni kecil25,000
727/04 21:03FHIGVGF5WNmurni kecil50,000
827/04 21:02C1OAB9WN0Pmurni kecil50,000
927/04 21:02RAJASETAN2murni kecil5,000
1027/04 21:01ANGGR43murni kecil5,000
1127/04 21:00JAK0Tmurni kecil5,000
1227/04 20:59NAZIFIREmurni besar50,000
1327/04 20:59JET_PISTOLbalak100,000
1427/04 20:59B4EL4Hmurni kecil50,000
1527/04 20:58ADITCUPLEYmurni kecil50,000
1627/04 20:58GUEGTOmurni besar50,000
1727/04 20:57BOHDONO77balak50,000
1827/04 20:57PALAPA99Xmurni kecil50,000
1927/04 20:56BAYU1766murni besar50,000
2027/04 20:56SADOYO01murni besar50,000
2127/04 20:56ARSI99murni besar50,000
2227/04 20:56AAS506murni kecil25,000
2327/04 20:55SCARERHCPmurni besar5,000
2427/04 20:55AAS506murni kecil25,000
2527/04 20:55MITHA1murni kecil25,000
2627/04 20:54KIA898murni kecil50,000
2727/04 20:54DAMAI88murni kecil25,000
2827/04 20:54BRONTAK26murni besar25,000
2927/04 20:53TOKEASmurni kecil50,000
3027/04 20:52DENCESOYmurni kecil50,000
3127/04 20:51PAPIEmurni besar50,000
3227/04 20:51JAGAN69murni kecil50,000
3327/04 20:50RIANAJAmurni besar25,000
3427/04 20:48MARD14NAmurni kecil25,000
3527/04 20:48VIS09HERmurni kecil25,000
3627/04 20:47RAJWIR01murni besar50,000
3727/04 20:46BIYAWAK012murni besar25,000
3827/04 20:46CHALUTAKmurni kecil25,000
3927/04 20:45KHERINATANmurni besar50,000
4027/04 20:45SIMANORONImurni kecil50,000
4127/04 20:45TRIA79murni kecil50,000
4227/04 20:45KAYLANIbalak100,000
4327/04 20:45OZBORN03murni besar50,000
4427/04 20:45KOCUS8686murni besar25,000
4527/04 20:45ACIEX88murni kecil25,000
4627/04 20:45DIMAZ21murni kecil50,000
4727/04 20:44IGU15murni kecil50,000
4827/04 20:43POKERKU23balak10,000
4927/04 20:43H4NTUHUT4Nmurni kecil50,000
5027/04 20:42A854C2CEmurni besar5,000

Ceme Multi Jackpot System

Jackpot dilihat dari gabungan kartu pemain dengan kartu bandar. Bandar harus membeli jackpot sebanyak jumlah player yang sedang duduk. Sebagai contoh bila terdapat 3 pemain duduk bermain, dan bandar memutuskan untuk membeli jackpot Rp 1.000, maka pada periode tersebut bandar akan membeli jackpot sebanyak 3xRp1.000 = Rp3.000.

Jackpot bukanlah suatu keharusan untuk dibeli, namun kami memberikan suatu fitur tambahan untuk member tercinta dari www.jakartapoker.com.

Terdapat tiga pilihan harga jackpot yang bisa anda beli yaitu :100,500 dan 1000 rupiah.

Hadiah dari Multi jackpot system www.jakartapoker.com

  1. Murni Kecil x 50 harga jackpot yang anda beli.
      (contoh:anda membeli 1000 maka:1000 X 50 = 50.000)
  2. Murni Besar x 50 harga jackpot yang anda beli
      (contoh:anda membeli 1000 maka:1000 X 50 = 50.000)
  3. BALAK x 200 harga jackpot yang anda beli
      (contoh:anda membeli 1000 maka:1000 X 200 = 200.000)
  4. ENAM DEWA x 6666 harga jackpot yang anda beli
      (contoh:anda membeli 1000 maka:1000 X 6666 = 6.666.000)

Demikian adalah penjelasan dari Multi Jackpot www.jakartapoker.com terima kasih dan selamat bermain salam hoki dari kami

Ceme Jackpot Winner

TOP ENAM DEWA
No.TanggalNamaPriceWin
127/04 20:51NEWBEE99murni enam6,666,000
227/04 20:35LIAU19murni enam3,333,000
327/04 20:13KAMSIN06murni enam6,666,000
427/04 20:09DWBTOP8934murni enam6,666,000
527/04 19:42P1J3Tmurni enam6,666,000
TOP BALAK
No.TanggalNamaPriceWin
127/04 21:05AHUN81balak200,000
227/04 21:05STONER008balak200,000
327/04 21:05H3N5balak20,000
427/04 21:04IMAH16balak100,000
527/04 21:04BOBORISbalak20,000
LATEST JACKPOT
No.TanggalNamaPriceWin
127/04 21:05ANENTmurni besar50,000
227/04 21:05AHUN81balak200,000
327/04 21:05F15C861Cmurni besar50,000
427/04 21:05HERAJOEmurni besar25,000
527/04 21:05STONER008balak200,000
627/04 21:05H3N5balak20,000
727/04 21:05ELISARATNAmurni besar50,000
827/04 21:05BONYET05murni besar5,000
927/04 21:05GERI889murni kecil5,000
1027/04 21:05NONSENSEmurni besar50,000
1127/04 21:04IMAH16balak100,000
1227/04 21:04RADEN_CEMEmurni besar25,000
1327/04 21:04SIMBISA06murni besar5,000
1427/04 21:04KEDAL10murni besar5,000
1527/04 21:04BOBORISbalak20,000
1627/04 21:04ZY8MKNIPOSbalak200,000
1727/04 21:04XBT100murni kecil5,000
1827/04 21:04BASENGMUEmurni besar50,000
1927/04 21:04BASENGMUEbalak200,000
2027/04 21:04JARUM71balak20,000
2127/04 21:04CSSS12312murni besar50,000
2227/04 21:04MILLO45murni kecil25,000
2327/04 21:04PURJAmurni besar50,000
2427/04 21:04BRSmurni besar50,000
2527/04 21:04PAIRASBAEmurni kecil5,000
2627/04 21:04RAIS4Z4murni kecil5,000
2727/04 21:03T4DBOLEHJO85murni kecil50,000
2827/04 21:03ARIBTA26murni kecil50,000
2927/04 21:03ZTB8Z7AH4Xmurni kecil5,000
3027/04 21:03PENJAGA88murni kecil50,000
3127/04 21:02RUMUS07murni kecil50,000
3227/04 21:02QQANWARQmurni kecil25,000
3327/04 21:02BASENGMUEmurni kecil50,000
3427/04 21:02ETTAAAAmurni kecil50,000
3527/04 21:02AGBAJEJEmurni kecil25,000
3627/04 21:02G42BFVT4I4murni besar25,000
3727/04 21:02KIWAY9murni kecil50,000
3827/04 21:02MRKONGmurni kecil50,000
3927/04 21:02KIWAY9murni kecil50,000
4027/04 21:02DHIJUmurni kecil5,000
4127/04 21:02WAJEB24murni kecil50,000
4227/04 21:02SAMSUHOYAmurni kecil5,000
4327/04 21:02GLADISS15murni kecil50,000
4427/04 21:02AZUNDHAmurni besar50,000
4527/04 21:02DAPLUN999murni kecil50,000
4627/04 21:02MILLO45murni kecil25,000
4727/04 21:01KURNIA16murni besar50,000
4827/04 21:01A7D4B062murni kecil5,000
4927/04 21:01RADEN_CEMEmurni kecil25,000
5027/04 21:01RANCAPOKmurni kecil5,000